Home   Weather   Dover   Past weeks
Flag for United Kingdom

Past Weather in Dover, England, United Kingdom — Yesterday and Last 2 Weeks

Now
75 °F

Mild.


Feels Like: 77 °F
Forecast: 72 / 67 °F
Wind: 22 mph from East

Location: Langdon Bay

Current Time: Jul 23, 2019 at 9:09:12 pm

Latest Report: Jul 23, 2019 at 8:00 pm


Visibility: N/A

Pressure: 29.97 "Hg

Humidity: 59%

Dew Point: 60 °F

Location of DoverLocation

Past Weather in Dover — Graph

°F

Dover Temperature Yesterday

Maximum temperature yesterday: 68 °F (at 4:00 pm)
Minimum temperature yesterday: 60 °F (at 2:00 am)
Average temperature yesterday: 64 °F

High & Low Weather Summary for the Past Weeks

 TemperatureHumidityPressure
High85 °F (Jul 23, 3:00 pm)100% (Jul 18, 12:00 pm)30.22 "Hg (Jul 18, 12:00 pm)
Low50 °F (Jul 16, 2:00 am)47% (Jul 12, 4:00 pm)29.75 "Hg (Jul 20, 6:00 am)
Average63 °F80%30.05 "Hg
* Reported Jul 8 8:00 pm — Jul 23 8:00 pm, Dover. Weather by CustomWeather, © 2019

Note: Actual official high and low records may vary slightly from our data, if they occured in-between our weather recording intervals... More about our weather records

Advertising

Dover Weather History for the Previous 24 Hours

Scroll right to see more
 ConditionsComfort  
Time TempWeatherWind HumidityBarometerVisibility
8:00 pm
Tue, Jul 23
75 °FMild.22 mph59%29.97 "HgN/A
7:00 pm77 °FMild.20 mph55%29.99 "HgN/A
6:00 pm79 °FWarm.18 mph53%30.00 "HgN/A
5:00 pm81 °FWarm.17 mph49%30.01 "HgN/A
4:00 pm84 °FWarm.13 mph51%30.03 "HgN/A
3:00 pm85 °FWarm.10 mph50%30.04 "HgN/A
2:00 pm85 °FWarm.8 mph52%30.06 "HgN/A
1:00 pm83 °FWarm.7 mph55%30.07 "HgN/A
12:00 pm80 °FWarm.8 mph59%30.09 "HgN/A
11:00 am77 °FMild.9 mph62%30.10 "HgN/A
10:00 am75 °FMild.10 mph58%30.12 "HgN/A
9:00 am73 °FMild.8 mph59%30.12 "HgN/A
8:00 am70 °FMild.5 mph75%30.13 "HgN/A
7:00 am65 °FMild.3 mph100%30.15 "HgN/A
6:00 am60 °FCool.1 mph100%30.15 "HgN/A
5:00 am61 °FCool.2 mph99%30.15 "HgN/A
3:00 am62 °FCool.3 mph99%30.17 "HgN/A
2:00 am62 °FCool.6 mph98%30.17 "HgN/A
12:00 am64 °FMild.7 mph95%30.18 "HgN/A
11:00 pm
Mon, Jul 22
63 °FMild.7 mph97%30.18 "HgN/A
10:00 pm63 °FMild.7 mph95%30.18 "HgN/A
9:00 pm64 °FMild.6 mph90%30.18 "HgN/A
Weather by CustomWeather, © 2019

See weather overview